Marshfield, MA

12:44 AM EST on November 22, 2019 (GMT -0500)
Marshfield

Weather History for KGHG - July, 2019

Change the Weather History Date:

Thursday, July 18, 2019

  Actual Average (KPYM) Record (KPYM)
Temperature  
Mean Temperature 72 °F -  
Max Temperature 75 °F 83 °F 98 °F (1991)
Min Temperature 68 °F 62 °F 51 °F (1985)
Cooling Degree Days 6    
Growing Degree Days 22 (Base 50)    
Moisture  
Dew Point 68 °F    
Average Humidity 91    
Maximum Humidity 100    
Minimum Humidity 73    
Precipitation  
Precipitation 0.01 in - - ()
Sea Level Pressure  
Sea Level Pressure 29.94 in    
Wind  
Wind Speed 4 mph (NE)    
Max Wind Speed 12 mph    
Max Gust Speed 21 mph    
Visibility 9 miles    
Events      
Averages and records for this station are not official NWS values.
T = Trace of Precipitation, MM = Missing Value Source: NWS Daily Summary

Daily Weather History Graph

Daily Weather History Graph

Search for Another Location

Airport or City:

Astronomy

Jul. 18, 2019 Rise Set
Actual Time 5:22 AM EDT 8:14 PM EDT
Civil Twilight 4:49 AM EDT 8:47 PM EDT
Nautical Twilight 4:07 AM EDT 9:29 PM EDT
Astronomical Twilight 3:18 AM EDT 10:18 PM EDT
Moon 9:37 PM EDT (7/18) 6:49 AM EDT (7/18)
Length of Visible Light 15h 58m
Length of Day
14h 52m
Full, 97% of the Moon is Illuminated
Jul 18
Full
Jul 24
Last Quarter
Jul 31
New
Aug 7
First Quarter
Aug 15
Full

Hourly Weather History & Observations

Time (EDT) Temp. Dew Point Humidity Pressure Visibility Wind Dir Wind Speed Gust Speed Precip Events Conditions
12:15 AM 73.4 °F 73.4 °F 100% 29.92 in 10.0 mi WSW 6.9 mph - N/A   Partly Cloudy
12:35 AM 75.2 °F 75.2 °F 100% 29.91 in 10.0 mi Variable 3.5 mph - N/A   Partly Cloudy
12:55 AM 75.2 °F 75.2 °F 100% 29.91 in 10.0 mi WSW 4.6 mph - N/A   Partly Cloudy
1:15 AM 75.2 °F 75.2 °F 100% 29.90 in 10.0 mi Calm Calm - N/A   Partly Cloudy
1:35 AM 73.4 °F 73.4 °F 100% 29.89 in 10.0 mi Calm Calm - N/A   Clear
1:55 AM 73.4 °F 73.4 °F 100% 29.88 in 10.0 mi Calm Calm - N/A   Clear
2:15 AM 73.4 °F 73.4 °F 100% 29.86 in 10.0 mi SSW 3.5 mph - N/A   Clear
2:35 AM 73.4 °F 73.4 °F 100% 29.86 in 10.0 mi Calm Calm - N/A   Clear
2:55 AM 73.4 °F 73.4 °F 100% 29.85 in 10.0 mi Calm Calm - 0.01 in   Clear
3:15 AM 71.6 °F 71.6 °F 100% 29.86 in 3.0 mi Calm Calm - N/A   Clear
3:35 AM 71.6 °F 71.6 °F 100% 29.89 in 8.0 mi Calm Calm - N/A   Clear
3:55 AM 71.6 °F 71.6 °F 100% 29.90 in 10.0 mi Calm Calm - N/A   Partly Cloudy
4:15 AM 73.4 °F 73.4 °F 100% 29.90 in 10.0 mi Calm Calm - N/A   Clear
4:35 AM 73.4 °F 73.4 °F 100% 29.90 in 10.0 mi Calm Calm - N/A   Clear
4:55 AM 73.4 °F 73.4 °F 100% 29.90 in 10.0 mi Calm Calm - N/A   Clear
5:15 AM 73.4 °F 73.4 °F 100% 29.91 in 10.0 mi Calm Calm - N/A   Clear
5:35 AM 73.4 °F 73.4 °F 100% 29.92 in 10.0 mi Calm Calm - N/A   Scattered Clouds
5:55 AM 73.4 °F 73.4 °F 100% 29.92 in 10.0 mi Calm Calm - N/A   Overcast
6:15 AM 73.4 °F 73.4 °F 100% 29.92 in 10.0 mi Calm Calm - N/A   Overcast
6:35 AM 73.4 °F 73.4 °F 100% 29.92 in 10.0 mi Calm Calm - N/A   Overcast
6:55 AM 73.4 °F 73.4 °F 100% 29.93 in 1.8 mi Variable 3.5 mph - N/A   Overcast
7:15 AM 73.4 °F 73.4 °F 100% 29.93 in 1.5 mi Variable 4.6 mph - N/A   Overcast
7:35 AM 73.4 °F 73.4 °F 100% 29.94 in 5.0 mi NNE 3.5 mph - N/A   Overcast
7:55 AM 73.4 °F 73.4 °F 100% 29.95 in 10.0 mi Variable 4.6 mph - N/A   Overcast
8:15 AM 71.6 °F 71.6 °F 100% 29.95 in 10.0 mi Variable 4.6 mph - N/A   Overcast
8:35 AM 71.6 °F 71.6 °F 100% 29.95 in 10.0 mi Variable 4.6 mph - N/A   Overcast
8:55 AM 71.6 °F 71.6 °F 100% 29.95 in 7.0 mi NE 8.1 mph - N/A   Overcast
9:15 AM 69.8 °F 69.8 °F 100% 29.96 in 3.0 mi NE 9.2 mph 16.1 mph N/A   Overcast
9:35 AM 69.8 °F 69.8 °F 100% 29.96 in 7.0 mi NE 9.2 mph 20.7 mph N/A   Overcast
9:55 AM 69.8 °F 69.8 °F 100% 29.97 in 6.0 mi Variable 6.9 mph 13.8 mph N/A   Overcast
10:15 AM 69.8 °F 68.0 °F 94% 29.97 in 10.0 mi Variable 5.8 mph - N/A   Overcast
10:35 AM 68.0 °F 66.2 °F 94% 29.98 in 10.0 mi Variable 5.8 mph 17.3 mph N/A   Overcast
10:55 AM 69.8 °F 64.4 °F 83% 29.98 in 10.0 mi Variable 6.9 mph 15.0 mph N/A   Overcast
11:15 AM 69.8 °F 64.4 °F 83% 29.97 in 10.0 mi Variable 4.6 mph - N/A   Overcast
11:35 AM 69.8 °F 66.2 °F 88% 29.98 in 10.0 mi NNE 5.8 mph - N/A   Overcast
11:55 AM 69.8 °F 64.4 °F 83% 29.99 in 10.0 mi NE 8.1 mph - N/A   Overcast
12:15 PM 69.8 °F 64.4 °F 83% 29.99 in 10.0 mi NE 11.5 mph - N/A   Overcast
12:35 PM 69.8 °F 64.4 °F 83% 29.99 in 10.0 mi NE 6.9 mph - N/A   Overcast
12:55 PM 69.8 °F 64.4 °F 83% 30.00 in 10.0 mi NE 8.1 mph 15.0 mph N/A   Overcast
1:15 PM 69.8 °F 62.6 °F 78% 29.99 in 10.0 mi Variable 5.8 mph 12.7 mph N/A   Overcast
1:35 PM 69.8 °F 62.6 °F 78% 29.98 in 10.0 mi NE 9.2 mph - N/A   Overcast
1:55 PM 71.6 °F 62.6 °F 73% 29.98 in 10.0 mi NNE 9.2 mph 15.0 mph N/A   Overcast
2:15 PM 69.8 °F 62.6 °F 78% 29.98 in 10.0 mi Variable 6.9 mph - N/A   Overcast
2:35 PM 69.8 °F 62.6 °F 78% 29.98 in 10.0 mi Variable 5.8 mph 11.5 mph N/A   Overcast
2:50 PM 69.8 °F 62.6 °F 78% 29.98 in 10.0 mi Variable 5.8 mph - N/A   Overcast
2:55 PM 69.8 °F 62.6 °F 78% 29.98 in 10.0 mi Variable 5.8 mph - N/A   Overcast
3:15 PM 69.8 °F 62.6 °F 78% 29.97 in 10.0 mi NNE 6.9 mph - N/A   Overcast
3:35 PM 69.8 °F 62.6 °F 78% 29.97 in 10.0 mi NNE 5.8 mph 11.5 mph N/A   Overcast
3:55 PM 69.8 °F 62.6 °F 78% 29.95 in 10.0 mi Variable 6.9 mph - N/A   Overcast
4:15 PM 69.8 °F 62.6 °F 78% 29.94 in 10.0 mi Variable 5.8 mph - N/A   Overcast
4:35 PM 69.8 °F 62.6 °F 78% 29.95 in 10.0 mi Variable 6.9 mph - N/A   Overcast
4:55 PM 69.8 °F 62.6 °F 78% 29.95 in 10.0 mi Variable 6.9 mph - N/A   Overcast
5:15 PM 69.8 °F 64.4 °F 83% 29.95 in 10.0 mi Variable 5.8 mph - N/A   Overcast
5:35 PM 69.8 °F 64.4 °F 83% 29.95 in 10.0 mi Variable 5.8 mph 13.8 mph N/A   Overcast
5:55 PM 68.0 °F 62.6 °F 83% 29.96 in 10.0 mi Variable 6.9 mph - N/A   Overcast
6:15 PM 68.0 °F 62.6 °F 83% 29.96 in 10.0 mi Variable 5.8 mph - N/A   Overcast
6:35 PM 68.0 °F 62.6 °F 83% 29.95 in 10.0 mi Variable 6.9 mph - N/A   Overcast
6:55 PM 68.0 °F 64.4 °F 88% 29.95 in 10.0 mi Variable 5.8 mph - N/A   Overcast
7:15 PM 68.0 °F 64.4 °F 88% 29.95 in 10.0 mi Variable 6.9 mph - N/A   Overcast
7:35 PM 68.0 °F 64.4 °F 88% 29.94 in 10.0 mi NE 5.8 mph - N/A   Overcast
7:55 PM 68.0 °F 64.4 °F 88% 29.95 in 10.0 mi Variable 5.8 mph - N/A   Overcast
8:15 PM 68.0 °F 64.4 °F 88% 29.94 in 10.0 mi Variable 4.6 mph - N/A   Overcast
8:35 PM 68.0 °F 64.4 °F 88% 29.95 in 5.0 mi Variable 4.6 mph - N/A   Light Drizzle
8:55 PM 68.0 °F 66.2 °F 94% 29.94 in 8.0 mi NE 4.6 mph - N/A   Overcast
9:15 PM 68.0 °F 66.2 °F 94% 29.94 in 6.0 mi NE 3.5 mph - N/A   Light Drizzle
9:35 PM 68.0 °F 66.2 °F 94% 29.94 in 10.0 mi NE 4.6 mph - N/A   Overcast
9:55 PM 68.0 °F 66.2 °F 94% 29.93 in 10.0 mi NE 4.6 mph - N/A   Overcast
10:15 PM 68.0 °F 66.2 °F 94% 29.93 in 10.0 mi ENE 8.1 mph - N/A   Overcast
10:35 PM 68.0 °F 66.2 °F 94% 29.93 in 10.0 mi ENE 6.9 mph - N/A   Overcast
10:55 PM 68.0 °F 66.2 °F 94% 29.92 in 10.0 mi ENE 4.6 mph - N/A   Overcast
11:15 PM 68.0 °F 66.2 °F 94% 29.92 in 10.0 mi East 5.8 mph - N/A   Overcast
11:35 PM 68.0 °F 66.2 °F 94% 29.92 in 10.0 mi Calm Calm - N/A   Overcast
11:55 PM 68.0 °F 66.2 °F 94% 29.92 in 10.0 mi Calm Calm - N/A   Overcast